Location: Agus-us
(14.2247°N, 120.8593°E)
Time: 17:30:10
(UTC+00:00)

USA 59 Rocket - Pass Details

Date: 13 December 2025
Orbit: 369 x 1675 km, 63.3° (Epoch: 20 January)

Event Time Altitude Azimuth Distance (km) Brightness Sun altitude
Exits shadow 20:56:03 15° 344° (NNW) 1,907 2.2 -18.0°
Maximum altitude 21:00:19 70° 67° (ENE) 947 1.1 -17.0°
Drops below altitude 10° 21:07:29 10° 150° (SSE) 3,080 4.4 -15.4°
Sets 21:10:44 0° 152° (SSE) 4,256 5.1 -14.6°
